Tracking 31027 objects as of 19-Jul-2025
HD Live streaming from Space Station
objects crossing your sky now

BREEZE-M R/B

Track BREEZE-M R/B now!


NORAD ID: 28656
Int'l Code: 2004-008C
Perigee: 4,146.8 km
Apogee: 36,812.9 km
Inclination: 13.7 °
Period: 729.8 minutes
Semi major axis: 26850 km
RCS: 6.2799 m2 (large)
Launch date: March 15, 2004
Source: Commonwealth of Independent States (former USSR) (CIS)
Launch site: TYURATAM MISSILE AND SPACE COMPLEX (TTMTR)

Note: This is a ROCKET BODY
Your satellite tracking list
FLOCK 3P 17
Track 1 satellite(s)




NASA's NSSDC Master Catalog

Two Line Element Set (TLE):
1 28656U 04008C   25196.99891975  .00000227  00000-0  00000-0 0  9990
2 28656  13.7156 329.2771 6082890 282.6529  19.4560  1.97317727147629
Source of the keplerian elements: AFSPC